FENGYUN 1C DEB, 30570

Orbit data source: Space-Track

FENGYUN 1C DEB, 30570 is space debris in SSO originally from a launch on Mon, 10 May 1999 UTC launched from the Taiyaun Space Center, China (TSC). Fengyun 1C debris stems from the Chinese weather satellite Fengyun-1C, which was intentionally destroyed by a Chinese anti-satellite missile in 2007. This event dramatically increased the amount of space debris, with thousands of trackable fragments posing hazards to satellites and human spaceflight. The Fengyun 1C debris cloud has become a focal point in discussions about space sustainability and the need for international regulations to prevent the creation of new debris.

Loading next visibility...
Identifier
30570, 1999-025ALL
Orbit
SSO
Country
Flag of CNCN / PRC
Related business
Manufacturer
Unknown
Mission
Spacecraft
Bus & Motor
Unknown
Mass
Unknown
Launch date (UTC)
1999-05-10 (27 years ago)
Launch vehicle
Unknown
Launch site
Taiyaun Space Center, China (TSC)
Object type
Payload
Rocket body
Debris
Shape & HBR
Unknown shape, 0.1 m
Radar Cross Section
Small (<0.1 m²)

Expand to show TLE details & history
Last TLE update: 18 hours ago

TLE from 18 hours ago
0 FENGYUN 1C DEB
1 30570U 99025ALL 26122.10242992  .00000654  00000-0  36097-3 0  9995
2 30570  98.6957 156.1000 0035977 170.2098 255.9384 14.14516901989826
Epoch: 2026-05-02T02:27Z
TLE epoch observation values (Epoch: 2026-05-02T02:27:29.945Z)
Latitude
64.4154°
Longitude
-119.32726°
Altitude
861.426 km
Speed
7.425 km/s
True Right ascension
09h 10m 17s
True Declination
64° 16' 59"
Sunlit
Object was in daylight at epoch
Visualization orbit readout
Latitude
Unknown
Longitude
Unknown
Altitude
Unknown
Speed
Unknown
Apparent Right ascension
Unknown
Apparent Declination
Unknown
Sunlit
N/A
Visualization observer readout
Local Sidereal Time
03:44:45
Azimuth
Unknown
Elevation
Unknown
Doppler factor
Unknown
Orbital elements
Apogee altitude
867.094 km
Perigee altitude
815.149 km
Semi-major axis
7,219.258 km
Eccentricity
0.0036
Inclination
98.6957°
RAAN
156.1°
Arg. of periapsis
170.2098°
True anomaly
255.53893°
Mean anomaly
255.9384°
Eccentric anomaly
255.73862°
Mean motion
3.53838 °/min
Orbital period
101.74 mins
BSTAR
0.00036097
Loading maneuver chart data...
Computing Atmospheric mass density...

Documentation

Showing up to 5 results
|